ABB854 OKKK-OMDW

Flight info

Callsign ABB854
Flight time 1h 12m
Altitude 33000
Route SESRU M677 LUDAM G666 ELOVU
Aircraft B748/H-SDE3FGHIM1M2RWXYZ/LB1

Departure

Time 2026-04-27 18:07
Airport Kuwait International Airport (OKKK)

Arrival

Time 2026-04-27 19:19
Airport Al Maktoum International Airport (OMDW)
Time Latitude Longitude Altitude Speed Heading
2026-04-27 18:00 29.24377 47.96353 151 ft 0 kts 70°
2026-04-27 18:01 29.24374 47.96344 151 ft 4 kts 70°
2026-04-27 18:02 29.24357 47.96290 151 ft 8 kts 79°
2026-04-27 18:02 29.24363 47.96242 151 ft 6 kts 129°
2026-04-27 18:02 29.24400 47.96210 151 ft 4 kts 155°
2026-04-27 18:02 29.24402 47.96209 151 ft 0 kts 155°
2026-04-27 18:04 29.24379 47.96221 151 ft 7 kts 155°
2026-04-27 18:05 29.24305 47.96261 151 ft 16 kts 154°
2026-04-27 18:05 29.24193 47.96307 154 ft 12 kts 182°
2026-04-27 18:05 29.24150 47.96278 157 ft 9 kts 232°
2026-04-27 18:05 29.24096 47.96183 170 ft 15 kts 218°
2026-04-27 18:06 29.24020 47.96175 172 ft 14 kts 167°
2026-04-27 18:06 29.23907 47.96234 172 ft 36 kts 155°
2026-04-27 18:06 29.23406 47.96500 180 ft 123 kts 155°
2026-04-27 18:06 29.22404 47.97036 214 ft 191 kts 155°
2026-04-27 18:07 29.21101 47.97722 862 ft 212 kts 153°
2026-04-27 18:07 29.19950 47.98562 2298 ft 196 kts 140°
2026-04-27 18:07 29.19141 48.00041 2388 ft 232 kts 117°
2026-04-27 18:07 29.18508 48.01784 2518 ft 253 kts 117°
2026-04-27 18:08 29.17772 48.03677 2782 ft 266 kts 119°
2026-04-27 18:08 29.16977 48.05629 3448 ft 277 kts 118°
2026-04-27 18:08 29.16164 48.07672 4688 ft 295 kts 118°
2026-04-27 18:08 29.15288 48.09896 6075 ft 318 kts 118°
2026-04-27 18:09 29.14342 48.12293 7367 ft 344 kts 117°
2026-04-27 18:09 29.13320 48.14877 8586 ft 371 kts 117°
2026-04-27 18:09 29.12240 48.17603 9729 ft 396 kts 116°
2026-04-27 18:09 29.11061 48.20586 10777 ft 421 kts 116°
2026-04-27 18:10 29.09822 48.23717 11913 ft 440 kts 116°
2026-04-27 18:10 29.08557 48.26904 13083 ft 449 kts 116°
2026-04-27 18:10 29.07259 48.30175 13736 ft 455 kts 116°
2026-04-27 18:10 29.05940 48.33492 14334 ft 460 kts 116°
2026-04-27 18:11 29.04602 48.36855 14734 ft 467 kts 116°
2026-04-27 18:11 29.03255 48.40238 14790 ft 467 kts 116°
2026-04-27 18:11 29.01922 48.43585 14788 ft 467 kts 116°
2026-04-27 18:11 29.00575 48.46964 14790 ft 467 kts 116°
2026-04-27 18:12 28.99215 48.50369 15306 ft 471 kts 116°
2026-04-27 18:12 28.97848 48.53789 15999 ft 474 kts 116°
2026-04-27 18:12 28.96468 48.57239 16635 ft 478 kts 116°
2026-04-27 18:12 28.95086 48.60690 17256 ft 483 kts 116°
2026-04-27 18:13 28.93681 48.64197 17872 ft 487 kts 116°
2026-04-27 18:13 28.92265 48.67731 18395 ft 491 kts 116°
2026-04-27 18:13 28.90836 48.71291 18895 ft 496 kts 116°
2026-04-27 18:13 28.89396 48.74874 19384 ft 500 kts 116°
2026-04-27 18:14 28.87932 48.78516 19888 ft 505 kts 117°
2026-04-27 18:14 28.86465 48.82159 20371 ft 509 kts 117°
2026-04-27 18:14 28.84976 48.85854 20875 ft 513 kts 117°
2026-04-27 18:14 28.83473 48.89579 21330 ft 517 kts 117°
2026-04-27 18:15 28.81962 48.93323 21773 ft 521 kts 117°
2026-04-27 18:15 28.80439 48.97094 22224 ft 525 kts 117°
2026-04-27 18:15 28.78921 49.00847 22657 ft 529 kts 117°
2026-04-27 18:15 28.77375 49.04664 23082 ft 532 kts 117°
2026-04-27 18:16 28.75812 49.08521 23498 ft 536 kts 117°
2026-04-27 18:16 28.74241 49.12393 23842 ft 539 kts 117°
2026-04-27 18:16 28.72663 49.16280 24190 ft 542 kts 117°
2026-04-27 18:16 28.71072 49.20192 24525 ft 546 kts 117°
2026-04-27 18:17 28.69485 49.24093 24851 ft 549 kts 117°
2026-04-27 18:17 28.67872 49.28052 25174 ft 552 kts 117°
2026-04-27 18:17 28.66248 49.32034 25485 ft 556 kts 118°
2026-04-27 18:17 28.64613 49.36041 25798 ft 559 kts 118°
2026-04-27 18:18 28.62960 49.40086 26096 ft 562 kts 118°
2026-04-27 18:18 28.61316 49.44105 26397 ft 565 kts 118°
2026-04-27 18:18 28.59442 49.48033 26675 ft 565 kts 125°
2026-04-27 18:18 28.57390 49.51883 26946 ft 567 kts 126°
2026-04-27 18:19 28.55338 49.55669 27203 ft 571 kts 126°
2026-04-27 18:19 28.53271 49.59539 27526 ft 574 kts 126°
2026-04-27 18:19 28.51218 49.63436 27958 ft 574 kts 126°
2026-04-27 18:19 28.49150 49.67325 28418 ft 574 kts 126°
2026-04-27 18:20 28.47064 49.71201 28884 ft 574 kts 127°
2026-04-27 18:20 28.44981 49.75081 29376 ft 574 kts 127°
2026-04-27 18:20 28.42790 49.78771 29932 ft 565 kts 135°
2026-04-27 18:20 28.40142 49.82022 30414 ft 554 kts 145°
2026-04-27 18:21 28.37148 49.84733 30914 ft 542 kts 153°
2026-04-27 18:21 28.34022 49.87133 31377 ft 542 kts 154°
2026-04-27 18:21 28.30921 49.89488 31849 ft 541 kts 154°
2026-04-27 18:21 28.27784 49.91858 32330 ft 541 kts 154°
2026-04-27 18:22 28.24639 49.94245 32747 ft 543 kts 154°
2026-04-27 18:22 28.21485 49.96644 32809 ft 546 kts 154°
2026-04-27 18:22 28.15210 50.01405 32821 ft 546 kts 154°
2026-04-27 18:23 28.09193 50.05959 32817 ft 546 kts 154°
2026-04-27 18:23 28.02882 50.10733 32827 ft 548 kts 155°
2026-04-27 18:24 27.96509 50.15544 32821 ft 550 kts 154°
2026-04-27 18:24 27.90173 50.20324 32816 ft 551 kts 154°
2026-04-27 18:25 27.83776 50.25138 32814 ft 551 kts 154°
2026-04-27 18:25 27.77388 50.29944 32816 ft 551 kts 154°
2026-04-27 18:26 27.70994 50.34742 32817 ft 552 kts 154°
2026-04-27 18:26 27.64617 50.39525 32812 ft 552 kts 154°
2026-04-27 18:27 27.58234 50.44354 32814 ft 554 kts 153°
2026-04-27 18:27 27.51861 50.49291 32816 ft 554 kts 154°
2026-04-27 18:28 27.45472 50.54147 32812 ft 554 kts 154°
2026-04-27 18:28 27.39100 50.59040 32810 ft 554 kts 154°
2026-04-27 18:29 27.32697 50.63914 32813 ft 555 kts 154°
2026-04-27 18:29 27.26301 50.68798 32816 ft 556 kts 154°
2026-04-27 18:30 27.19922 50.73649 32815 ft 557 kts 154°
2026-04-27 18:30 27.14623 50.77904 32835 ft 566 kts 146°
2026-04-27 18:31 27.08990 50.84128 32823 ft 573 kts 142°
2026-04-27 18:31 27.03361 50.90518 32822 ft 573 kts 142°
2026-04-27 18:32 26.98409 50.97275 32849 ft 587 kts 128°
2026-04-27 18:32 26.94084 51.05082 32824 ft 588 kts 127°
2026-04-27 18:33 26.89777 51.12876 32826 ft 588 kts 127°
2026-04-27 18:33 26.86145 51.21171 32839 ft 599 kts 112°
2026-04-27 18:34 26.83504 51.30020 32831 ft 598 kts 112°
2026-04-27 18:34 26.80863 51.38849 32832 ft 597 kts 112°
2026-04-27 18:35 26.78221 51.47621 32822 ft 597 kts 112°
2026-04-27 18:35 26.75622 51.56274 32819 ft 596 kts 112°
2026-04-27 18:36 26.72977 51.65011 32819 ft 596 kts 112°
2026-04-27 18:36 26.70348 51.73823 32815 ft 596 kts 111°
2026-04-27 18:37 26.67705 51.82614 32812 ft 596 kts 112°
2026-04-27 18:37 26.65034 51.91382 32818 ft 594 kts 114°
2026-04-27 18:38 26.62227 52.00027 32817 ft 595 kts 112°
2026-04-27 18:38 26.59387 52.08766 32813 ft 594 kts 114°
2026-04-27 18:39 26.56559 52.17386 32816 ft 594 kts 113°
2026-04-27 18:39 26.53731 52.26061 32818 ft 594 kts 113°
2026-04-27 18:40 26.50875 52.34730 32814 ft 595 kts 113°
2026-04-27 18:40 26.48028 52.43411 32818 ft 595 kts 113°
2026-04-27 18:41 26.45162 52.52083 32813 ft 595 kts 113°
2026-04-27 18:41 26.42304 52.60742 32821 ft 595 kts 113°
2026-04-27 18:42 26.39916 52.67948 32825 ft 595 kts 113°
2026-04-27 18:42 26.36586 52.77987 32821 ft 595 kts 113°
2026-04-27 18:43 26.33697 52.86663 32817 ft 595 kts 113°
2026-04-27 18:43 26.30802 52.95331 32814 ft 594 kts 113°
2026-04-27 18:44 26.27933 53.03907 32816 ft 594 kts 113°
2026-04-27 18:44 26.25038 53.12534 32814 ft 595 kts 113°
2026-04-27 18:45 26.22135 53.21172 32804 ft 595 kts 113°
2026-04-27 18:45 26.19228 53.29800 32806 ft 593 kts 113°
2026-04-27 18:46 26.16023 53.38257 32811 ft 592 kts 117°
2026-04-27 18:46 26.12618 53.46608 32809 ft 592 kts 117°
2026-04-27 18:47 26.09250 53.54915 32800 ft 592 kts 117°
2026-04-27 18:47 26.05835 53.63275 32804 ft 592 kts 117°
2026-04-27 18:48 26.02439 53.71603 32799 ft 592 kts 117°
2026-04-27 18:48 25.99048 53.79972 32793 ft 593 kts 116°
2026-04-27 18:49 25.95478 53.88191 32816 ft 588 kts 128°
2026-04-27 18:49 25.93011 53.91708 32804 ft 575 kts 137°
2026-04-27 18:49 25.90069 53.94796 32093 ft 565 kts 148°
2026-04-27 18:50 25.86831 53.97197 31297 ft 555 kts 157°
2026-04-27 18:50 25.83419 53.98971 30508 ft 545 kts 165°
2026-04-27 18:50 25.79766 54.00172 29673 ft 535 kts 174°
2026-04-27 18:50 25.76172 54.00848 28879 ft 530 kts 173°
2026-04-27 18:51 25.72626 54.01986 28036 ft 531 kts 166°
2026-04-27 18:51 25.69134 54.03292 27179 ft 528 kts 166°
2026-04-27 18:51 25.65661 54.04591 26281 ft 525 kts 166°
2026-04-27 18:51 25.62198 54.05870 25413 ft 523 kts 166°
2026-04-27 18:52 25.58764 54.07060 24535 ft 517 kts 171°
2026-04-27 18:52 25.55229 54.07881 23654 ft 513 kts 172°
2026-04-27 18:52 25.51741 54.08675 22738 ft 509 kts 172°
2026-04-27 18:53 25.44877 54.10253 21020 ft 498 kts 172°
2026-04-27 18:53 25.41503 54.11027 20164 ft 493 kts 172°
2026-04-27 18:53 25.38163 54.11787 19319 ft 488 kts 172°
2026-04-27 18:53 25.34850 54.12543 18479 ft 483 kts 171°
2026-04-27 18:54 25.31562 54.13295 17606 ft 478 kts 171°
2026-04-27 18:54 25.28329 54.14034 16785 ft 472 kts 171°
2026-04-27 18:54 25.25137 54.14758 15975 ft 466 kts 171°
2026-04-27 18:54 25.21967 54.15475 15156 ft 461 kts 171°
2026-04-27 18:55 25.18839 54.16185 14367 ft 457 kts 170°
2026-04-27 18:55 25.15729 54.16892 13549 ft 454 kts 170°
2026-04-27 18:55 25.12660 54.17590 13058 ft 443 kts 170°
2026-04-27 18:55 25.09699 54.18262 12899 ft 426 kts 170°
2026-04-27 18:56 25.06904 54.18988 12771 ft 410 kts 163°
2026-04-27 18:56 25.04337 54.20333 12652 ft 398 kts 148°
2026-04-27 18:56 25.02241 54.22188 12518 ft 387 kts 135°
2026-04-27 18:56 25.00602 54.24471 12375 ft 376 kts 122°
2026-04-27 18:57 24.99274 54.26919 12228 ft 366 kts 121°
2026-04-27 18:57 24.97997 54.29306 12085 ft 357 kts 121°
2026-04-27 18:57 24.96756 54.31641 11947 ft 348 kts 121°
2026-04-27 18:57 24.95540 54.33917 11812 ft 341 kts 121°
2026-04-27 18:58 24.94353 54.36128 11778 ft 329 kts 121°
2026-04-27 18:58 24.93591 54.37547 11785 ft 321 kts 121°
2026-04-27 18:58 24.92109 54.40310 11870 ft 304 kts 121°
2026-04-27 18:58 24.91031 54.42318 11965 ft 306 kts 121°
2026-04-27 18:59 24.90025 54.44377 11992 ft 305 kts 108°
2026-04-27 18:59 24.89745 54.46667 12017 ft 303 kts 81°
2026-04-27 18:59 24.90106 54.48949 12009 ft 301 kts 75°
2026-04-27 18:59 24.90580 54.51201 11873 ft 302 kts 75°
2026-04-27 19:00 24.91007 54.53378 11673 ft 299 kts 77°
2026-04-27 19:00 24.91396 54.55593 11470 ft 298 kts 77°
2026-04-27 19:00 24.91792 54.57831 11275 ft 297 kts 76°
2026-04-27 19:00 24.92201 54.60057 11078 ft 296 kts 76°
2026-04-27 19:01 24.92611 54.62283 10887 ft 295 kts 76°
2026-04-27 19:01 24.93044 54.64483 10689 ft 292 kts 68°
2026-04-27 19:01 24.94011 54.66394 10535 ft 285 kts 49°
2026-04-27 19:01 24.95226 54.68119 10336 ft 284 kts 47°
2026-04-27 19:02 24.96424 54.69844 10127 ft 285 kts 57°
2026-04-27 19:02 24.97022 54.71925 10043 ft 289 kts 84°
2026-04-27 19:02 24.96922 54.74164 10084 ft 294 kts 94°
2026-04-27 19:02 24.96669 54.76418 9861 ft 299 kts 95°
2026-04-27 19:03 24.96395 54.78650 9884 ft 290 kts 94°
2026-04-27 19:03 24.96176 54.80670 9891 ft 292 kts 94°
2026-04-27 19:03 24.95950 54.82863 9902 ft 293 kts 94°
2026-04-27 19:03 24.95791 54.84364 9904 ft 293 kts 94°
2026-04-27 19:04 24.95445 54.87315 9907 ft 293 kts 100°
2026-04-27 19:04 24.94655 54.89393 9950 ft 297 kts 118°
2026-04-27 19:04 24.93579 54.91340 9958 ft 298 kts 121°
2026-04-27 19:04 24.92463 54.93275 9971 ft 298 kts 120°
2026-04-27 19:05 24.91383 54.95229 9841 ft 299 kts 119°
2026-04-27 19:05 24.90333 54.97174 9665 ft 297 kts 119°
2026-04-27 19:05 24.89270 54.99119 9464 ft 297 kts 120°
2026-04-27 19:05 24.88204 55.01052 9271 ft 296 kts 120°
2026-04-27 19:06 24.87132 55.02996 9074 ft 294 kts 119°
2026-04-27 19:06 24.86072 55.04923 8894 ft 294 kts 119°
2026-04-27 19:06 24.85012 55.06851 8695 ft 294 kts 119°
2026-04-27 19:06 24.83954 55.08774 8495 ft 294 kts 119°
2026-04-27 19:07 24.82950 55.10594 8298 ft 294 kts 119°
2026-04-27 19:07 24.81890 55.12518 8098 ft 293 kts 119°
2026-04-27 19:07 24.80831 55.14436 7963 ft 292 kts 119°
2026-04-27 19:07 24.79763 55.16357 7704 ft 294 kts 119°
2026-04-27 19:08 24.78694 55.18274 7450 ft 292 kts 119°
2026-04-27 19:08 24.77633 55.20182 7215 ft 291 kts 119°
2026-04-27 19:08 24.76932 55.21442 7047 ft 291 kts 119°
2026-04-27 19:08 24.75877 55.23343 6802 ft 291 kts 119°
2026-04-27 19:09 24.74825 55.25239 6573 ft 290 kts 119°
2026-04-27 19:09 24.73431 55.27750 6253 ft 289 kts 119°
2026-04-27 19:09 24.72735 55.29003 6085 ft 288 kts 119°
2026-04-27 19:09 24.71690 55.30883 5831 ft 287 kts 119°
2026-04-27 19:10 24.70648 55.32756 5608 ft 286 kts 119°
2026-04-27 19:10 24.69613 55.34619 5369 ft 285 kts 119°
2026-04-27 19:10 24.68785 55.36554 5135 ft 271 kts 97°
2026-04-27 19:10 24.68699 55.37877 5004 ft 254 kts 78°
2026-04-27 19:11 24.69451 55.40193 4739 ft 236 kts 47°
2026-04-27 19:11 24.70603 55.41414 4550 ft 226 kts 26°
2026-04-27 19:11 24.71966 55.42231 4349 ft 222 kts 11°
2026-04-27 19:11 24.73445 55.42401 4164 ft 214 kts 349°
2026-04-27 19:12 24.74838 55.41912 4000 ft 210 kts 328°
2026-04-27 19:12 24.75926 55.40860 3822 ft 210 kts 306°
2026-04-27 19:12 24.76712 55.39528 3811 ft 208 kts 304°
2026-04-27 19:12 24.77480 55.38171 3772 ft 208 kts 303°
2026-04-27 19:13 24.78228 55.36811 3721 ft 202 kts 302°
2026-04-27 19:13 24.78921 55.35547 3573 ft 185 kts 303°
2026-04-27 19:13 24.79548 55.34403 3368 ft 168 kts 303°
2026-04-27 19:13 24.80150 55.33316 3161 ft 165 kts 303°
2026-04-27 19:14 24.80744 55.32247 2956 ft 163 kts 302°
2026-04-27 19:14 24.81303 55.31231 2764 ft 150 kts 302°
2026-04-27 19:14 24.81845 55.30246 2611 ft 149 kts 302°
2026-04-27 19:14 24.82375 55.29286 2431 ft 148 kts 302°
2026-04-27 19:15 24.82916 55.28318 2269 ft 149 kts 302°
2026-04-27 19:15 24.83453 55.27345 2077 ft 147 kts 302°
2026-04-27 19:15 24.83984 55.26381 1891 ft 146 kts 301°
2026-04-27 19:15 24.84406 55.25617 1742 ft 145 kts 301°
2026-04-27 19:16 24.84735 55.25019 1638 ft 143 kts 301°
2026-04-27 19:16 24.85076 55.24400 1495 ft 143 kts 301°
2026-04-27 19:16 24.85778 55.23124 1255 ft 150 kts 301°
2026-04-27 19:16 24.86324 55.22150 1068 ft 153 kts 301°
2026-04-27 19:17 24.86883 55.21140 871 ft 160 kts 301°
2026-04-27 19:17 24.87453 55.20102 668 ft 161 kts 300°
2026-04-27 19:17 24.88010 55.19086 406 ft 162 kts 299°
2026-04-27 19:17 24.88587 55.18038 227 ft 156 kts 301°
2026-04-27 19:18 24.89113 55.17097 167 ft 133 kts 301°
2026-04-27 19:18 24.89500 55.16390 164 ft 85 kts 301°
2026-04-27 19:18 24.89749 55.15934 164 ft 61 kts 301°
2026-04-27 19:18 24.89950 55.15553 164 ft 54 kts 295°
2026-04-27 19:19 24.89993 55.15180 166 ft 43 kts 276°
2026-04-27 19:19 24.90036 55.14982 165 ft 14 kts 266°
2026-04-27 19:19 24.90008 55.14945 165 ft 13 kts 210°
2026-04-27 19:19 24.89882 55.14865 165 ft 21 kts 210°
2026-04-27 19:20 24.89755 55.14784 165 ft 21 kts 210°
2026-04-27 19:20 24.89633 55.14707 166 ft 20 kts 210°
2026-04-27 19:20 24.89518 55.14630 166 ft 19 kts 211°
2026-04-27 19:20 24.89412 55.14554 167 ft 18 kts 211°
2026-04-27 19:21 24.89310 55.14487 168 ft 17 kts 211°
2026-04-27 19:21 24.89232 55.14434 168 ft 5 kts 219°
2026-04-27 19:21 24.89206 55.14413 168 ft 7 kts 216°
2026-04-27 19:21 24.89187 55.14379 168 ft 5 kts 257°
2026-04-27 19:22 24.89191 55.14346 169 ft 0 kts 285°
2026-04-27 19:22 24.89198 55.14335 168 ft 5 kts 302°
2026-04-27 19:22 24.89219 55.14299 168 ft 0 kts 301°